Glendive, MT

5:26 AM MST on February 25, 2017 (GMT -0700)
Dawson Community

Weather History for KGDV - March, 2014

Change the Weather History Date:

Wednesday, March 12, 2014

  Actual Average Record
Temperature  
Mean Temperature 40 °F -  
Max Temperature 55 °F 34 °F 75 °F (2007)
Min Temperature 24 °F 15 °F -5 °F (2009)
Degree Days  
Heating Degree Days 26    
Moisture  
Dew Point 25 °F    
Average Humidity 59    
Maximum Humidity 86    
Minimum Humidity 33    
Precipitation  
Precipitation 0.00 in - - ()
Sea Level Pressure  
Sea Level Pressure 30.08 in    
Wind  
Wind Speed 12 mph (West)    
Max Wind Speed 25 mph    
Max Gust Speed 33 mph    
Visibility 10 miles    
Events      
Averages and records for this station are not official NWS values.
T = Trace of Precipitation, MM = Missing Value Source: NWS Daily Summary

Daily Weather History Graph

Daily Weather History Graph

Search for Another Location

Airport or City:

Trip Planner

Search our weather history database for the weather conditions in past years. The results will help you decide how hot, cold, wet, or windy it might be!

Date:

Astronomy

Mar. 12, 2014 Rise Set
Actual Time 7:17 AM MDT 7:00 PM MDT
Civil Twilight 6:47 AM MDT 7:31 PM MDT
Nautical Twilight 6:12 AM MDT 8:06 PM MDT
Astronomical Twilight 5:36 AM MDT 8:42 PM MDT
Moon 3:22 PM MDT (3/12) 5:03 AM MDT (3/12)
Length of Visible Light 12h 43m
Length of Day
11h 42m
Waxing Gibbous, 86% of the Moon is Illuminated
Mar 12
Waxing Gibbous
Mar 16
Full
Mar 23
Last Quarter
Mar 30
New
Apr 7
First Quarter

Hourly Weather History & Observations

Time (MDT) Temp. Windchill Dew Point Humidity Pressure Visibility Wind Dir Wind Speed Gust Speed Precip Events Conditions
12:15 AM 24.8 °F 16.1 °F 21.2 °F 86% 30.20 in 10.0 mi West 8.1 mph - N/A   Clear
12:35 AM 26.6 °F 17.5 °F 23.0 °F 86% 30.20 in 10.0 mi West 9.2 mph - N/A   Clear
12:55 AM 26.6 °F 16.8 °F 21.2 °F 80% 30.20 in 10.0 mi West 10.4 mph - N/A   Clear
1:15 AM 26.6 °F 20.0 °F 23.0 °F 86% 30.20 in 10.0 mi South 5.8 mph - N/A   Scattered Clouds
1:35 AM 28.4 °F 23.3 °F 21.2 °F 74% 30.20 in 10.0 mi WNW 4.6 mph - N/A   Scattered Clouds
1:55 AM 28.4 °F 23.3 °F 24.8 °F 86% 30.19 in 10.0 mi NW 4.6 mph - N/A   Mostly Cloudy
2:15 AM 28.4 °F 22.2 °F 21.2 °F 74% 30.19 in 10.0 mi WSW 5.8 mph - N/A   Partly Cloudy
2:35 AM 26.6 °F 19.1 °F 21.2 °F 80% 30.18 in 10.0 mi West 6.9 mph - N/A   Clear
2:55 AM 26.6 °F 18.2 °F 21.2 °F 80% 30.17 in 10.0 mi West 8.1 mph - N/A   Clear
3:15 AM 28.4 °F 23.3 °F 23.0 °F 80% 30.17 in 10.0 mi West 4.6 mph - N/A   Clear
3:35 AM 26.6 °F - 19.4 °F 74% 30.15 in 10.0 mi Calm Calm - N/A   Clear
3:55 AM 26.6 °F - 23.0 °F 86% 30.15 in 10.0 mi Calm Calm - N/A   Clear
4:15 AM 26.6 °F - 21.2 °F 80% 30.14 in 10.0 mi Calm Calm - N/A   Clear
4:35 AM 28.4 °F 20.4 °F 21.2 °F 74% 30.13 in 10.0 mi West 8.1 mph - N/A   Clear
4:55 AM 30.2 °F 21.3 °F 24.8 °F 80% 30.13 in 10.0 mi WSW 10.4 mph - N/A   Clear
5:15 AM 30.2 °F 21.9 °F 24.8 °F 80% 30.13 in 10.0 mi WSW 9.2 mph - N/A   Clear
5:35 AM 32.0 °F 22.1 °F 26.6 °F 80% 30.13 in 10.0 mi West 13.8 mph - N/A   Clear
5:55 AM 32.0 °F 21.6 °F 24.8 °F 75% 30.13 in 10.0 mi West 15.0 mph - N/A   Clear
6:15 AM 32.0 °F 21.2 °F 24.8 °F 75% 30.13 in 10.0 mi West 16.1 mph - N/A   Clear
6:35 AM 32.0 °F 22.5 °F 24.8 °F 75% 30.13 in 10.0 mi West 12.7 mph - N/A   Clear
6:55 AM 30.2 °F 20.2 °F 24.8 °F 80% 30.13 in 10.0 mi West 12.7 mph - N/A   Clear
7:15 AM 30.2 °F 19.8 °F 24.8 °F 80% 30.14 in 10.0 mi West 13.8 mph - N/A   Clear
7:35 AM 30.2 °F 20.2 °F 24.8 °F 80% 30.13 in 10.0 mi West 12.7 mph - N/A   Clear
7:55 AM 33.8 °F 23.9 °F 26.6 °F 75% 30.13 in 10.0 mi West 15.0 mph - N/A   Clear
8:15 AM 33.8 °F 24.3 °F 26.6 °F 75% 30.13 in 10.0 mi West 13.8 mph 17.3 mph N/A   Clear
8:35 AM 35.6 °F 26.2 °F 26.6 °F 70% 30.13 in 10.0 mi West 15.0 mph - N/A   Clear
8:55 AM 37.4 °F 28.9 °F 26.6 °F 65% 30.13 in 10.0 mi WNW 13.8 mph - N/A   Clear
9:15 AM 39.2 °F 30.5 °F 26.6 °F 61% 30.13 in 10.0 mi WNW 16.1 mph 21.9 mph N/A   Clear
9:35 AM 41.0 °F 32.8 °F 26.6 °F 57% 30.13 in 10.0 mi WNW 16.1 mph - N/A   Clear
9:55 AM 42.8 °F 34.3 °F 26.6 °F 53% 30.13 in 10.0 mi West 19.6 mph 24.2 mph N/A   Clear
10:15 AM 42.8 °F 34.3 °F 24.8 °F 49% 30.13 in 10.0 mi West 19.6 mph 25.3 mph N/A   Clear
10:35 AM 44.6 °F 36.9 °F 26.6 °F 49% 30.13 in 10.0 mi West 18.4 mph 25.3 mph N/A   Clear
10:55 AM 44.6 °F 36.6 °F 26.6 °F 49% 30.13 in 10.0 mi West 19.6 mph 28.8 mph N/A   Clear
11:15 AM 46.4 °F 38.1 °F 26.6 °F 46% 30.12 in 10.0 mi West 24.2 mph 29.9 mph N/A   Clear
11:35 AM 46.4 °F 37.9 °F 26.6 °F 46% 30.11 in 10.0 mi WNW 25.3 mph 33.4 mph N/A   Clear
11:55 AM 46.4 °F 38.7 °F 26.6 °F 46% 30.11 in 10.0 mi West 20.7 mph 29.9 mph N/A   Clear
12:15 PM 48.2 °F - 26.6 °F 43% 30.10 in 10.0 mi WNW 23.0 mph 29.9 mph N/A   Clear
12:35 PM 48.2 °F - 26.6 °F 43% 30.10 in 10.0 mi West 23.0 mph 29.9 mph N/A   Clear
12:55 PM 50.0 °F - 26.6 °F 40% 30.09 in 10.0 mi West 24.2 mph 31.1 mph N/A   Clear
1:15 PM 51.8 °F - 26.6 °F 38% 30.09 in 10.0 mi WNW 21.9 mph 29.9 mph N/A   Clear
1:35 PM 53.6 °F - 28.4 °F 38% 30.08 in 10.0 mi WNW 20.7 mph 27.6 mph N/A   Clear
1:55 PM 53.6 °F - 26.6 °F 35% 30.08 in 10.0 mi West 18.4 mph 25.3 mph N/A   Clear
2:15 PM 53.6 °F - 26.6 °F 35% 30.07 in 10.0 mi West 19.6 mph 26.5 mph N/A   Clear
2:35 PM 53.6 °F - 26.6 °F 35% 30.06 in 10.0 mi WNW 21.9 mph 27.6 mph N/A   Clear
2:55 PM 55.4 °F - 26.6 °F 33% 30.05 in 10.0 mi West 19.6 mph 25.3 mph N/A   Clear
3:15 PM 53.6 °F - 26.6 °F 35% 30.05 in 10.0 mi West 17.3 mph 26.5 mph N/A   Clear
3:35 PM 55.4 °F - 26.6 °F 33% 30.04 in 10.0 mi West 21.9 mph 27.6 mph N/A   Clear
3:55 PM 55.4 °F - 26.6 °F 33% 30.04 in 10.0 mi West 18.4 mph 26.5 mph N/A   Clear
4:15 PM 55.4 °F - 26.6 °F 33% 30.03 in 10.0 mi West 23.0 mph 28.8 mph N/A   Clear
4:35 PM 55.4 °F - 26.6 °F 33% 30.03 in 10.0 mi West 21.9 mph 27.6 mph N/A   Clear
4:55 PM 55.4 °F - 26.6 °F 33% 30.02 in 10.0 mi WNW 17.3 mph 26.5 mph N/A   Clear
5:15 PM 53.6 °F - 24.8 °F 33% 30.02 in 10.0 mi WNW 18.4 mph - N/A   Clear
5:35 PM 53.6 °F - 26.6 °F 35% 30.02 in 10.0 mi WNW 21.9 mph - N/A   Clear
5:55 PM 53.6 °F - 26.6 °F 35% 30.01 in 10.0 mi West 16.1 mph 21.9 mph N/A   Clear
6:15 PM 51.8 °F - 26.6 °F 38% 30.01 in 10.0 mi West 15.0 mph 20.7 mph N/A   Clear
6:35 PM 51.8 °F - 26.6 °F 38% 30.01 in 10.0 mi West 15.0 mph - N/A   Clear
6:55 PM 48.2 °F - 26.6 °F 43% 30.01 in 10.0 mi West 12.7 mph - N/A   Clear
7:15 PM 44.6 °F 38.4 °F 26.6 °F 49% 30.00 in 10.0 mi West 12.7 mph - N/A   Clear
7:55 PM 41.0 °F 37.1 °F 24.8 °F 53% 30.00 in 10.0 mi WNW 5.8 mph - N/A   Clear
8:15 PM 41.0 °F - 26.6 °F 57% 30.00 in 10.0 mi Calm Calm - N/A   Clear
8:35 PM 41.0 °F 38.0 °F 24.8 °F 53% 29.99 in 10.0 mi WSW 4.6 mph - N/A   Clear
8:55 PM 37.4 °F 30.3 °F 26.6 °F 65% 29.98 in 10.0 mi West 10.4 mph - N/A   Clear
9:15 PM 35.6 °F 30.7 °F 24.8 °F 65% 29.99 in 10.0 mi West 5.8 mph - N/A   Clear
9:35 PM 37.4 °F 32.1 °F 26.6 °F 65% 29.98 in 10.0 mi West 6.9 mph - N/A   Clear
9:55 PM 37.4 °F 32.1 °F 26.6 °F 65% 29.98 in 10.0 mi SW 6.9 mph - N/A   Clear
10:15 PM 37.4 °F 31.4 °F 26.6 °F 65% 29.97 in 10.0 mi WSW 8.1 mph - N/A   Clear
10:35 PM 37.4 °F 30.3 °F 26.6 °F 65% 29.97 in 10.0 mi WSW 10.4 mph - N/A   Clear
10:55 PM 37.4 °F 30.8 °F 28.4 °F 70% 29.96 in 10.0 mi WSW 9.2 mph - N/A   Clear
11:15 PM 37.4 °F 30.3 °F 28.4 °F 70% 29.96 in 10.0 mi SW 10.4 mph - N/A   Clear
11:35 PM 35.6 °F 29.2 °F 26.6 °F 70% 29.95 in 10.0 mi SW 8.1 mph - N/A   Clear
11:55 PM 35.6 °F 28.6 °F 26.6 °F 70% 29.95 in 10.0 mi West 9.2 mph - N/A   Clear